Franklin, VA

12:35 AM EDT on August 22, 2017 (GMT -0400)
Franklin Municipal-Rose

Weather History for KFKN - December, 2012

Change the Weather History Date:

Sunday, December 30, 2012

  Actual Average (KSFQ) Record (KSFQ)
Temperature  
Mean Temperature 38 °F -  
Max Temperature 46 °F 49 °F 71 °F (1954)
Min Temperature 30 °F 31 °F 18 °F (1961)
Degree Days  
Heating Degree Days 27    
Moisture  
Dew Point 25 °F    
Average Humidity 59    
Maximum Humidity 80    
Minimum Humidity 34    
Precipitation  
Precipitation 0.00 in - - ()
Sea Level Pressure  
Sea Level Pressure 30.18 in    
Wind  
Wind Speed 9 mph (WNW)    
Max Wind Speed 18 mph    
Max Gust Speed 30 mph    
Visibility 10 miles    
Events      
Averages and records for this station are not official NWS values.
T = Trace of Precipitation, MM = Missing Value Source: NWS Daily Summary

Daily Weather History Graph

Daily Weather History Graph

Search for Another Location

Airport or City:

Trip Planner

Search our weather history database for the weather conditions in past years. The results will help you decide how hot, cold, wet, or windy it might be!

Date:

Astronomy

Dec. 30, 2012 Rise Set
Actual Time 7:19 AM EST 5:01 PM EST
Civil Twilight 6:50 AM EST 5:29 PM EST
Nautical Twilight 6:18 AM EST 6:02 PM EST
Astronomical Twilight 5:47 AM EST 6:33 PM EST
Moon 7:26 PM EST (12/30) 8:31 AM EST (12/30)
Length of Visible Light 10h 39m
Length of Day
9h 41m
Waning Gibbous, 95% of the Moon is Illuminated
Dec 30
Waning Gibbous
Jan 4
Last Quarter
Jan 11
New
Jan 18
First Quarter
Jan 26
Full

Hourly Weather History & Observations

Time (EST) Temp. Windchill Dew Point Humidity Pressure Visibility Wind Dir Wind Speed Gust Speed Precip Events Conditions
12:15 AM 39.2 °F 32.5 °F 30.2 °F 70% 29.86 in 10.0 mi WNW 10.4 mph - N/A   Clear
12:35 AM 39.2 °F 33.0 °F 30.2 °F 70% 29.87 in 10.0 mi WNW 9.2 mph - N/A   Clear
12:55 AM 39.2 °F 33.0 °F 30.2 °F 70% 29.87 in 10.0 mi WNW 9.2 mph - N/A   Clear
1:15 AM 37.4 °F 32.1 °F 30.2 °F 75% 29.88 in 10.0 mi WNW 6.9 mph - N/A   Clear
1:35 AM 37.4 °F 32.1 °F 30.2 °F 75% 29.90 in 10.0 mi WNW 6.9 mph - N/A   Clear
1:55 AM 37.4 °F 30.8 °F 30.2 °F 75% 29.91 in 10.0 mi West 9.2 mph - N/A   Clear
2:15 AM 37.4 °F 32.1 °F 30.2 °F 75% 29.92 in 10.0 mi West 6.9 mph - N/A   Clear
2:35 AM 37.4 °F 32.1 °F 30.2 °F 75% 29.93 in 10.0 mi West 6.9 mph - N/A   Clear
2:55 AM 37.4 °F 29.8 °F 30.2 °F 75% 29.95 in 10.0 mi West 11.5 mph - N/A   Clear
3:15 AM 37.4 °F 29.8 °F 28.4 °F 70% 29.96 in 10.0 mi WNW 11.5 mph - N/A   Clear
3:35 AM 37.4 °F 31.4 °F 28.4 °F 70% 29.97 in 10.0 mi West 8.1 mph - N/A   Clear
3:55 AM 37.4 °F 30.3 °F 28.4 °F 70% 29.97 in 10.0 mi West 10.4 mph - N/A   Clear
4:15 AM 37.4 °F 30.3 °F 28.4 °F 70% 29.98 in 10.0 mi West 10.4 mph - N/A   Clear
4:35 AM 37.4 °F 30.3 °F 28.4 °F 70% 29.99 in 10.0 mi West 10.4 mph - N/A   Clear
4:55 AM 35.6 °F 29.2 °F 28.4 °F 75% 30.00 in 10.0 mi West 8.1 mph - N/A   Clear
5:15 AM 35.6 °F 28.6 °F 28.4 °F 75% 30.01 in 10.0 mi West 9.2 mph - N/A   Clear
5:35 AM 35.6 °F 29.2 °F 26.6 °F 70% 30.03 in 10.0 mi WNW 8.1 mph - N/A   Clear
5:55 AM 35.6 °F 29.2 °F 26.6 °F 70% 30.04 in 10.0 mi West 8.1 mph - N/A   Clear
6:15 AM 35.6 °F 30.7 °F 26.6 °F 70% 30.06 in 10.0 mi West 5.8 mph - N/A   Clear
6:35 AM 35.6 °F 30.7 °F 26.6 °F 70% 30.07 in 10.0 mi West 5.8 mph - N/A   Clear
6:55 AM 35.6 °F 30.7 °F 26.6 °F 70% 30.09 in 10.0 mi West 5.8 mph - N/A   Clear
7:35 AM 33.8 °F 26.4 °F 26.6 °F 75% 30.12 in 10.0 mi West 9.2 mph - N/A   Clear
7:55 AM 35.6 °F 29.2 °F 26.6 °F 70% 30.13 in 10.0 mi WNW 8.1 mph - N/A   Clear
8:15 AM 35.6 °F 29.9 °F 26.6 °F 70% 30.15 in 10.0 mi WNW 6.9 mph - N/A   Clear
8:35 AM 37.4 °F 30.8 °F 26.6 °F 65% 30.16 in 10.0 mi WNW 9.2 mph - N/A   Clear
8:55 AM 37.4 °F 29.8 °F 26.6 °F 65% 30.17 in 10.0 mi WNW 11.5 mph 20.7 mph N/A   Clear
9:15 AM 39.2 °F 33.0 °F 26.6 °F 61% 30.19 in 10.0 mi WNW 9.2 mph 17.3 mph N/A   Clear
9:35 AM 39.2 °F 32.0 °F 26.6 °F 61% 30.20 in 10.0 mi WNW 11.5 mph - N/A   Clear
9:55 AM 42.8 °F 36.2 °F 26.6 °F 53% 30.21 in 10.0 mi WNW 12.7 mph 23.0 mph N/A   Clear
10:15 AM 42.8 °F 35.8 °F 24.8 °F 49% 30.22 in 10.0 mi WNW 13.8 mph 21.9 mph N/A   Clear
10:35 AM 42.8 °F 35.8 °F 24.8 °F 49% 30.22 in 10.0 mi WNW 13.8 mph 27.6 mph N/A   Clear
10:55 AM 44.6 °F 38.4 °F 24.8 °F 46% 30.23 in 10.0 mi WNW 12.7 mph 24.2 mph N/A   Clear
11:15 AM 44.6 °F 38.4 °F 23.0 °F 43% 30.23 in 10.0 mi NW 12.7 mph 24.2 mph N/A   Scattered Clouds
11:35 AM 44.6 °F 38.8 °F 23.0 °F 43% 30.23 in 10.0 mi NW 11.5 mph 27.6 mph N/A   Scattered Clouds
11:55 AM 44.6 °F 37.4 °F 21.2 °F 39% 30.21 in 10.0 mi NNW 16.1 mph 29.9 mph N/A   Scattered Clouds
12:15 PM 44.6 °F 36.9 °F 21.2 °F 39% 30.22 in 10.0 mi NW 18.4 mph 27.6 mph N/A   Scattered Clouds
12:35 PM 46.4 °F 40.1 °F 23.0 °F 40% 30.22 in 10.0 mi NW 15.0 mph 26.5 mph N/A   Scattered Clouds
12:55 PM 46.4 °F 41.1 °F 21.2 °F 37% 30.22 in 10.0 mi WNW 11.5 mph 20.7 mph N/A   Scattered Clouds
1:15 PM 46.4 °F 39.2 °F 21.2 °F 37% 30.21 in 10.0 mi NW 18.4 mph 25.3 mph N/A   Scattered Clouds
1:35 PM 46.4 °F 39.8 °F 19.4 °F 34% 30.21 in 10.0 mi WNW 16.1 mph 26.5 mph N/A   Scattered Clouds
1:55 PM 46.4 °F 40.4 °F 21.2 °F 37% 30.22 in 10.0 mi WNW 13.8 mph 20.7 mph N/A   Clear
2:15 PM 46.4 °F 40.1 °F 21.2 °F 37% 30.23 in 10.0 mi WNW 15.0 mph 20.7 mph N/A   Clear
2:35 PM 46.4 °F 40.7 °F 19.4 °F 34% 30.24 in 10.0 mi NW 12.7 mph 23.0 mph N/A   Clear
2:55 PM 46.4 °F 40.7 °F 19.4 °F 34% 30.24 in 10.0 mi WNW 12.7 mph 17.3 mph N/A   Clear
3:15 PM 46.4 °F 40.7 °F 21.2 °F 37% 30.25 in 10.0 mi West 12.7 mph - N/A   Clear
3:35 PM 46.4 °F 40.7 °F 19.4 °F 34% 30.26 in 10.0 mi WNW 12.7 mph 19.6 mph N/A   Clear
3:55 PM 46.4 °F 40.7 °F 19.4 °F 34% 30.27 in 10.0 mi WNW 12.7 mph - N/A   Clear
4:15 PM 44.6 °F 39.2 °F 19.4 °F 37% 30.28 in 10.0 mi WNW 10.4 mph - N/A   Clear
4:35 PM 44.6 °F 39.2 °F 21.2 °F 39% 30.28 in 10.0 mi WNW 10.4 mph - N/A   Clear
4:55 PM 42.8 °F 38.0 °F 21.2 °F 42% 30.29 in 10.0 mi West 8.1 mph - N/A   Clear
5:15 PM 42.8 °F 39.3 °F 21.2 °F 42% 30.30 in 10.0 mi West 5.8 mph - N/A   Clear
5:35 PM 39.2 °F 35.0 °F 21.2 °F 49% 30.30 in 10.0 mi WNW 5.8 mph - N/A   Clear
5:55 PM 37.4 °F - 21.2 °F 52% 30.30 in 10.0 mi Calm Calm - N/A   Clear
6:15 PM 37.4 °F - 24.8 °F 60% 30.30 in 10.0 mi Calm Calm - N/A   Clear
6:35 PM 39.2 °F - 23.0 °F 52% 30.30 in 10.0 mi Calm Calm - N/A   Clear
6:55 PM 33.8 °F 29.6 °F 24.8 °F 70% 30.30 in 10.0 mi WSW 4.6 mph - N/A   Clear
7:15 PM 35.6 °F - 24.8 °F 65% 30.31 in 10.0 mi Calm Calm - N/A   Clear
7:35 PM 32.0 °F - 24.8 °F 75% 30.31 in 10.0 mi Calm Calm - N/A   Clear
7:55 PM 35.6 °F - 24.8 °F 65% 30.32 in 10.0 mi Calm Calm - N/A   Clear
8:15 PM 30.2 °F - 24.8 °F 80% 30.33 in 10.0 mi Calm Calm - N/A   Clear
8:35 PM 33.8 °F 29.6 °F 24.8 °F 70% 30.34 in 10.0 mi SSW 4.6 mph - N/A   Clear
8:55 PM 33.8 °F 30.8 °F 24.8 °F 70% 30.33 in 10.0 mi West 3.5 mph - N/A   Clear
9:15 PM 33.8 °F - 24.8 °F 70% 30.34 in 10.0 mi Calm Calm - N/A   Clear
9:35 PM 32.0 °F - 24.8 °F 75% 30.35 in 10.0 mi Calm Calm - N/A   Clear
9:55 PM 33.8 °F 28.6 °F 23.0 °F 65% 30.35 in 10.0 mi WNW 5.8 mph - N/A   Clear
10:15 PM 33.8 °F - 23.0 °F 65% 30.36 in 10.0 mi Calm Calm - N/A   Clear
10:35 PM 33.8 °F - 23.0 °F 65% 30.37 in 10.0 mi Calm Calm - N/A   Clear
10:55 PM 32.0 °F - 23.0 °F 69% 30.36 in 10.0 mi Calm Calm - N/A   Clear
11:15 PM 30.2 °F - 24.8 °F 80% 30.36 in 10.0 mi Calm Calm - N/A   Clear
11:35 PM 33.8 °F - 23.0 °F 65% 30.36 in 10.0 mi Calm Calm - N/A   Clear
11:55 PM 32.0 °F 28.7 °F 23.0 °F 69% 30.36 in 10.0 mi NNE 3.5 mph - N/A   Clear